Regional Weather Roundup
Issued by NWS

Home | Current Version | Previous Version | Text Only | Print | Product List | Glossary Off
Versions: 1 2 3 4 5 6 7 8 9 10 11 12 13 14 15 16 17 18 19 20 21 22 23 24 25 26 27 28 29 30 31 32 33 34 35 36 37 38 39 40 41 42 43 44 45 46 47 48

000
ASUS45 KCYS 231410
RWRWY

WYOMING REGIONAL WEATHER ROUNDUP
NATIONAL WEATHER SERVICE CHEYENNE WY
800 AM MDT TUE SEP 23 2014

NOTE:  "FAIR" INDICATES FEW OR NO CLOUDS BELOW 12,000 FEET
WITH NO SIGNIFICANT WEATHER AND/OR OBSTRUCTIONS TO VISIBILITY.

WYZ001-231500-
YELLOWSTONE NATIONAL PARK

CITY           SKY/WX    TMP DP  RH WIND       PRES   REMARKS
LK YELLOWSTONE   N/A     47  46  97 CALM      30.33R
W YELLOWSTONE  NOT AVBL

$$
WYZ002>013-054>058-071-098>099-231500-
NORTHERN WYOMING

CITY           SKY/WX    TMP DP  RH WIND       PRES   REMARKS
JACKSON        CLOUDY    48  48 100 CALM      30.27R
CODY           CLEAR     64  45  48 W5        30.10R
GREYBULL       PTCLDY    54  46  74 CALM      30.05R
WORLAND        CLEAR     51  46  83 NW3       30.07R
SHERIDAN       SUNNY     56  47  71 CALM      29.99R
BUFFALO        SUNNY     59  43  55 SW5       30.05R
GILLETTE       PTSUNNY   57  48  72 W7        30.00R
HULETT         CLOUDY    57  54  88 MISG      30.01
NEWCASTLE      DRIZZLE   55  54  94 MISG      30.01

$$
WYZ014>020-022>026-101>103-231500-
CENTRAL WYOMING

CITY           SKY/WX    TMP DP  RH WIND       PRES   REMARKS
BIG PINEY      FOG       39  38  96 W5        30.29R VSB 1/4
PINEDALE       SUNNY     43  43 100 CALM      30.29R
DUBOIS         FAIR      52  41  66 W13G18    30.23R
LANDER         CLEAR     52  39  61 S3        30.12R
RIVERTON       PTCLDY    55  39  54 W9        30.13R
CASPER         SUNNY     57  40  52 SW12      30.10R
DOUGLAS        MOSUNNY   54  42  64 W8        30.08R

$$
WYZ021-027>030-104>119-231500-
SOUTHERN WYOMING

CITY           SKY/WX    TMP DP  RH WIND       PRES   REMARKS
EVANSTON       PTCLDY    51  44  77 SW7       30.29R
KEMMERER       MOSUNNY   45  41  87 NW3       30.30S
FORT BRIDGER   PTSUNNY   51  46  84 CALM      30.32R
ROCK SPRINGS   CLEAR     47  43  86 W3        30.27R
DIXON          CLOUDY    53  50  92 S3        30.29R
RAWLINS        SUNNY     50  44  80 SW14      30.23S
SARATOGA       FAIR      46  43  87 CALM      30.27R
LARAMIE        SUNNY     50  43  77 W10       30.22S
CHEYENNE       MOSUNNY   57  45  64 W8        30.17S
TORRINGTON     SUNNY     55  48  77 CALM      30.02S
PINE BLUFFS    FAIR      57  46  67 W7        30.12R

$$


USA.gov is the U.S. government's official web portal to all federal, state and local government web resources and services.